Regional Weather Roundup
Issued by NWS Goodland, KS

Home | Current Version | Previous Version | Graphics & Text | Print | Product List | Glossary On
Versions: 1 2 3 4 5 6 7 8 9 10 11 12 13 14 15 16 17 18 19 20 21 22 23 24 25 26 27 28 29 30 31 32 33 34 35 36 37 38 39 40 41 42 43 44 45 46 47 48 49 50
000
ASUS43 KGLD 020459
RWRGLD

GOODLAND FORECAST AREA HOURLY WEATHER ROUNDUP
NATIONAL WEATHER SERVICE GOODLAND KS
1100 PM MDT MON JUN 01 2015

...OFFICIAL OBSERVATIONS...

CITY           SKY/WX    TMP DP  RH WIND       PRES   REMARKS
GOODLAND KS    MOCLDY    68  63  84 S14       30.00S
HILL CITY KS   MOCLDY    65  61  87 SE8       30.01F
IMPERIAL NEB   TSTM      60  56  86 NE14G25   30.02F
MCCOOK NEB     CLOUDY    67  61  81 SE12      29.98S
AKRON CO       CLOUDY    63  56  78 E12       30.02S
BURLINGTON CO  CLOUDY    69  62  78 S13       30.02S
LIMON CO       CLOUDY    65  49  56 SW17      30.05S
$$

...UNOFFICIAL OBSERVATIONS...

CITY           SKY/WX    TMP DP  RH WIND       PRES   REMARKS
COLBY KS       CLEAR     70  66  88 SE13      30.01F
GOVE KS          N/A     68  32  26 MISG        N/A
NORTON KS      CLEAR     63  55  77 SE10      30.00F
SHARON SPRINGS   N/A     68  64  86 MISG        N/A
KIT CARSON CO    N/A     66  56  70 MISG        N/A
$$



USA.gov is the U.S. government's official web portal to all federal, state and local government web resources and services.